Wind_Speed
29 26 24 23 21 20 19 18 16 15 13 12 11 9 9 9 11 12 14 16 18 20 21 23 24 26 27 30 32 34 36 39 41 42 43 44 43 43 43 44 44 44 43 42 40 38 37 35 34 32 30 28 27 25 22 20 18 16 14 12 11 10 10 9 9 10 11 12 13 15 16 18 19 19 20 22 23 25 26 27 28 29 30 30 31 32 33 34
21 19 18 17 16 15 14 14 13 12 11 10 10 11 12 13 15 17 19 21 22 24 25 26 28 31 35 38 40 43 45 47 47 47 47 46 47 48 48 48 48 45 43 41 39 37 36 34 32 30 28 26 25 23 21 19 16 15 13 11 11 11 10 10 10 11 13 14 15 17 18 20 20 21 22 23 25 26 28 29 30 31 31 32 33 34 35 35
14 13 13 12 12 12 12 12 12 12 13 13 14 15 17 18 20 21 22 24 26 28 30 32 36 40 44 47 49 50 50 50 50 50 50 51 51 51 50 49 47 44 42 40 38 36 34 33 31 29 26 24 23 21 19 17 15 13 12 12 12 12 11 11 11 13 14 15 17 19 20 22 22 23 24 26 27 28 29 30 31 32 32 33 34 35 36 37
9 10 11 11 12 13 14 15 16 17 17 18 20 21 22 23 25 26 28 30 33 36 38 41 44 48 51 52 52 52 52 53 53 54 54 54 53 51 49 48 46 44 41 39 37 35 33 32 30 27 25 23 21 20 17 15 14 13 12 12 12 12 12 12 12 14 15 16 18 20 22 23 24 25 26 28 29 30 31 32 32 33 34 35 36 37 38 39
8 10 12 14 15 17 18 20 21 22 23 25 26 27 28 30 32 34 36 39 42 45 47 48 50 52 54 54 54 54 55 56 56 55 55 53 52 50 48 47 45 43 41 39 36 34 32 30 28 26 23 21 20 18 15 13 12 13 12 11 12 12 12 12 13 15 16 18 20 21 23 24 26 27 28 29 30 31 33 34 35 36 36 37 37 38 39 40
12 14 16 18 20 22 24 25 27 29 30 32 33 35 36 38 41 44 47 49 51 53 53 53 54 55 56 56 57 57 57 57 56 55 53 52 50 48 47 45 44 42 40 38 35 33 31 29 27 25 22 20 18 16 14 12 12 13 12 12 12 12 12 13 15 17 18 20 21 22 24 26 27 28 29 31 32 33 34 36 37 37 38 38 39 40 40 41
18 20 22 24 26 28 30 32 34 36 38 40 41 43 45 48 50 53 54 55 55 55 56 56 57 58 59 58 58 58 57 56 55 53 52 50 48 47 45 44 42 40 38 36 33 31 29 27 26 23 20 18 17 15 13 12 13 13 12 13 13 12 13 15 17 18 19 21 22 24 26 27 29 30 31 32 33 35 36 37 38 39 40 40 40 41 41 42
23 25 28 30 33 35 38 40 42 44 46 48 50 52 54 55 56 57 57 56 56 57 58 59 59 59 59 58 57 56 56 55 53 52 50 49 47 45 44 42 40 38 36 34 32 29 27 26 24 20 17 16 15 14 13 13 13 13 13 14 14 14 16 17 18 19 21 22 24 26 28 29 31 32 33 34 35 37 38 39 40 40 40 41 41 42 42 43
30 32 35 38 41 44 46 48 50 52 54 55 56 57 58 58 58 57 57 57 59 59 60 60 59 59 58 58 56 54 54 53 51 50 48 46 45 43 41 39 38 36 34 32 30 27 25 23 21 18 15 14 14 13 13 13 13 13 14 15 16 18 19 20 21 21 23 24 25 27 30 32 33 35 36 37 38 39 40 40 41 41 41 41 42 43 44 44
38 41 44 47 49 51 53 55 56 57 58 59 59 59 59 58 58 58 58 59 60 60 59 59 58 58 57 56 54 52 52 51 49 47 46 44 42 40 39 37 35 33 31 29 27 25 23 21 19 17 14 13 13 12 12 12 13 14 15 16 18 20 21 22 23 24 25 27 28 30 32 34 35 37 38 39 40 41 42 42 43 43 43 43 43 44 45 45
46 48 51 53 55 56 58 59 60 60 60 60 59 59 59 59 59 58 58 59 60 60 59 58 57 56 55 54 52 49 49 48 46 45 43 41 39 37 36 34 32 30 29 27 24 22 20 17 16 15 13 12 12 11 12 13 14 15 16 17 19 20 22 24 25 27 28 29 31 33 34 36 37 39 40 40 41 42 43 44 45 45 45 45 45 45 46 46
51 53 55 56 58 59 60 60 61 60 60 59 59 59 59 59 58 58 58 57 58 58 58 56 54 53 52 51 49 47 45 45 43 41 40 38 36 34 33 31 29 27 26 24 22 19 17 15 14 13 12 11 11 12 14 14 15 16 18 19 20 21 23 25 27 29 30 31 32 34 36 37 39 40 40 41 42 43 44 45 46 46 47 47 46 46 47 48
54 55 57 58 59 60 60 60 60 60 60 59 59 59 59 58 57 57 56 56 56 55 55 54 52 50 50 48 45 44 43 41 40 38 36 34 32 31 30 28 26 23 22 21 18 16 14 12 12 12 12 11 12 14 16 17 18 20 21 22 23 23 25 26 28 29 31 32 33 35 36 38 40 41 42 43 44 44 45 47 47 48 48 48 48 48 48 49
56 56 57 58 59 59 60 60 59 59 59 59 59 58 58 57 56 55 54 54 53 53 51 50 50 48 47 45 42 41 40 38 36 35 33 31 28 26 26 25 23 20 19 17 15 12 12 11 11 12 12 12 14 15 17 19 21 22 24 24 25 26 27 28 29 30 32 33 34 36 38 40 42 43 45 45 46 46 47 48 49 49 49 49 49 50 50 52
56 57 57 58 58 58 58 58 58 58 58 58 58 58 57 56 54 53 52 51 50 50 48 47 46 45 43 42 40 38 37 35 33 31 29 28 26 23 22 21 19 17 16 14 12 10 10 10 12 13 13 14 15 16 18 20 22 23 24 25 26 27 28 29 30 32 33 35 36 38 41 43 44 46 47 48 48 49 49 50 51 51 51 51 52 52 53 54
56 56 57 57 57 57 57 57 57 57 57 57 57 56 55 54 52 51 49 48 47 46 45 44 42 40 40 39 37 35 33 31 29 27 26 25 23 20 18 17 15 14 13 11 9 8 8 10 13 15 15 15 16 17 19 21 22 23 24 26 28 29 30 31 32 34 35 37 38 40 43 45 46 47 48 49 50 51 51 52 53 53 54 54 54 54 54 55
55 56 56 56 56 55 55 55 55 55 55 55 55 54 53 52 50 48 47 45 44 42 41 41 38 36 36 36 34 32 30 28 26 24 22 21 18 16 14 13 12 10 9 8 7 6 7 9 13 15 15 15 16 18 20 21 22 23 25 28 30 31 32 33 34 35 37 39 40 42 44 46 47 48 49 51 52 52 53 54 54 55 56 56 56 56 56 57
54 54 54 54 54 54 54 53 53 53 53 52 51 51 51 50 48 46 44 42 41 39 38 36 34 33 33 32 30 29 26 24 22 21 19 16 13 12 11 10 9 9 7 7 8 8 9 10 12 15 16 16 17 19 20 22 23 24 26 29 31 32 33 34 35 37 39 40 42 44 45 47 48 49 50 51 52 53 55 56 57 57 58 58 58 58 58 59
52 52 52 52 52 52 52 51 51 50 50 49 48 48 47 47 46 44 42 40 39 37 34 32 30 31 30 29 27 25 23 21 19 17 14 12 10 9 8 8 8 7 7 8 9 10 11 11 13 15 15 16 18 20 22 23 25 26 28 30 32 33 34 35 36 38 39 41 43 45 47 49 50 51 51 52 53 55 56 58 59 59 60 60 61 61 60 60
50 50 50 50 50 50 50 49 48 47 47 46 45 44 44 42 42 42 40 38 36 34 31 28 27 27 28 26 24 22 20 17 15 13 10 9 8 7 6 6 5 5 7 9 10 11 11 12 14 15 16 17 19 21 23 25 26 28 30 31 32 34 35 36 37 39 40 42 45 47 49 50 52 53 53 54 55 56 58 59 60 61 61 62 62 62 62 62
48 48 48 48 48 47 47 47 46 45 44 43 42 41 40 39 38 38 37 36 34 31 28 26 24 24 24 23 21 20 17 13 11 10 8 6 5 5 5 4 3 6 9 11 10 11 13 15 16 16 17 18 20 23 25 27 28 30 31 33 33 34 36 37 39 40 42 44 46 49 51 52 53 55 56 56 57 58 59 60 61 62 63 63 63 64 63 63
46 46 46 46 45 45 45 44 44 43 41 40 39 38 37 35 34 34 33 33 31 28 26 23 22 21 19 18 17 16 14 12 9 7 6 5 4 4 3 3 5 9 11 11 12 14 16 17 17 18 18 19 21 24 26 28 30 32 33 34 35 36 37 38 40 42 44 46 48 51 53 55 56 57 58 59 59 60 60 61 62 63 64 64 64 65 65 64
44 44 44 44 43 43 42 42 41 41 39 38 36 35 33 31 31 29 28 29 29 25 23 21 19 18 16 14 13 11 10 10 8 6 4 3 2 2 3 5 8 10 12 14 16 17 18 18 18 19 20 21 24 26 28 30 33 35 36 37 37 37 38 40 41 43 46 49 51 53 56 58 59 60 60 60 60 61 62 63 63 64 65 65 65 65 66 66
42 42 41 41 41 40 40 39 39 38 37 36 34 33 31 29 28 26 22 24 25 23 21 19 17 15 13 11 9 7 7 7 5 3 2 1 3 4 7 9 11 12 15 17 17 18 19 20 21 21 23 25 27 29 31 34 36 38 38 38 38 39 40 41 43 45 48 51 53 55 57 59 61 62 62 62 62 63 64 64 64 65 65 66 66 66 66 67
39 39 39 39 38 38 38 37 36 35 34 33 32 31 29 27 26 24 18 17 20 20 18 16 14 12 10 8 7 6 6 5 3 1 2 2 3 7 9 11 12 14 16 18 19 20 22 23 24 25 27 29 31 33 35 37 39 39 39 40 40 41 42 44 46 48 50 53 54 56 59 61 62 63 64 65 65 65 65 65 66 66 67 67 67 67 68 68
37 37 36 36 36 35 35 34 33 33 31 30 29 28 26 25 24 22 17 14 15 15 14 13 11 8 7 6 6 5 3 2 2 4 4 4 6 9 11 13 15 16 18 19 21 23 25 26 27 28 30 32 34 36 37 39 40 40 41 41 42 43 44 45 47 50 52 54 55 57 59 61 62 64 65 67 67 67 66 66 67 67 67 68 69 69 69 70
34 34 34 33 33 32 32 31 30 29 28 27 26 25 23 22 20 19 16 12 11 11 10 9 7 6 5 5 4 3 3 4 5 6 6 8 10 12 14 16 18 19 20 21 24 25 27 28 29 31 33 34 36 38 39 40 41 42 42 43 44 45 46 47 49 51 53 54 56 58 59 60 62 63 65 67 68 69 69 68 69 69 69 70 70 71 72 72
32 31 31 31 30 29 29 28 27 26 25 24 23 22 20 19 17 16 14 11 9 8 7 6 5 5 5 5 4 5 6 6 7 8 10 11 13 15 17 19 20 21 22 24 26 27 28 30 31 33 35 37 38 40 41 42 43 44 44 45 46 47 48 49 51 53 54 55 56 58 60 60 62 64 65 66 68 69 70 70 70 71 71 71 72 73 73 74
29 29 28 28 27 26 25 25 24 22 21 20 20 19 17 16 14 13 11 9 7 6 5 4 4 5 6 7 8 9 10 10 11 11 13 14 15 17 18 20 21 22 24 25 27 29 30 32 33 35 37 38 40 42 43 44 44 45 46 47 47 48 49 51 52 54 55 56 57 57 60 61 61 63 65 65 66 69 71 72 72 73 74 74 74 75 75 76
26 26 26 25 24 23 22 22 21 19 18 17 16 15 14 13 12 10 8 7 6 5 5 6 7 9 10 12 13 13 14 14 14 14 15 16 17 19 20 22 23 24 25 27 29 31 33 34 35 37 38 40 42 43 44 45 46 46 47 47 48 49 50 52 54 55 57 58 59 58 59 62 61 61 64 65 65 68 70 72 74 75 76 76 77 77 77 78
23 23 23 23 22 21 20 20 19 17 16 15 14 13 12 11 10 9 7 7 7 7 9 10 12 14 16 17 17 17 17 17 16 16 17 18 20 21 23 24 26 27 28 30 32 33 35 36 37 39 40 41 43 44 45 46 46 47 47 48 49 50 51 53 55 57 59 61 62 60 59 62 64 62 63 65 66 68 70 73 75 76 77 78 79 79 79 80
21 21 21 21 20 19 19 18 17 16 15 14 13 12 11 11 10 9 9 10 10 11 13 14 17 18 19 19 19 19 19 19 18 19 20 21 23 24 26 27 28 29 31 33 34 36 37 38 39 40 41 42 43 44 45 46 47 48 48 49 49 50 51 53 54 57 61 64 65 64 60 61 65 66 65 66 68 69 71 73 75 77 77 78 80 81 81 81
20 20 20 20 20 19 18 18 17 16 15 14 14 13 12 12 12 12 12 13 14 15 17 18 20 21 20 20 21 21 21 21 22 22 23 25 26 27 29 30 31 33 34 35 36 37 38 39 40 41 42 43 44 45 46 47 48 49 49 50 51 51 51 53 53 54 58 64 67 67 64 62 64 68 67 68 68 70 72 74 76 77 78 79 80 81 82 82
19 19 19 19 19 18 18 17 17 16 15 15 15 14 14 15 15 15 16 17 18 19 20 22 23 22 22 22 22 23 23 24 25 26 27 28 29 31 32 33 34 35 36 37 38 39 40 41 42 43 44 45 45 46 47 48 49 50 51 52 53 54 54 55 55 55 56 61 66 69 69 65 65 69 70 70 70 71 72 74 76 78 79 80 80 81 82 83
19 19 18 18 18 17 17 17 16 16 16 16 16 16 16 17 18 18 19 19 20 22 23 25 25 24 23 24 24 24 25 26 27 28 29 30 32 33 34 35 36 37 37 38 39 40 41 43 43 44 45 46 47 47 48 48 49 51 52 53 55 56 57 58 59 60 59 60 64 69 70 67 66 68 70 71 71 71 72 74 76 78 79 80 81 82 82 83
19 18 18 18 18 18 17 17 17 17 17 17 17 18 18 19 20 21 21 22 23 24 25 26 26 26 26 26 26 27 27 28 29 30 31 32 34 35 36 37 38 39 39 40 41 42 43 44 45 46 47 48 48 49 49 50 50 52 53 54 56 57 59 60 61 62 62 62 63 68 72 69 66 68 70 71 72 72 72 74 76 78 80 81 83 83 83 84
19 19 19 18 19 19 19 19 19 19 20 20 20 21 21 22 23 23 24 25 26 27 27 28 28 28 28 28 29 29 30 31 31 33 34 35 36 37 38 39 40 41 41 42 43 44 44 46 47 48 49 50 50 51 52 53 53 53 54 55 57 58 60 62 63 64 64 64 64 67 73 73 68 68 70 71 72 73 74 76 77 79 81 82 84 85 85 85
20 20 20 20 20 21 21 21 22 22 22 23 23 24 24 25 26 26 27 28 29 29 29 30 30 30 30 31 31 32 32 33 34 35 36 37 38 39 40 41 42 43 44 44 45 46 47 48 49 50 51 52 53 53 54 56 56 56 56 57 58 60 61 63 66 67 67 68 66 67 74 78 73 71 72 73 74 74 75 77 79 80 82 84 85 86 86 86
21 21 21 22 22 22 23 24 24 24 25 25 26 27 27 28 29 29 30 30 31 31 32 32 32 33 33 33 34 35 35 36 37 38 39 39 40 41 42 43 45 46 47 47 48 49 49 50 52 52 52 54 55 56 56 58 59 59 59 59 60 61 63 65 67 70 70 72 71 68 73 80 78 75 76 76 76 76 76 77 79 81 83 85 85 86 87 87
22 22 23 23 23 24 25 25 26 26 27 28 28 29 30 30 31 32 32 33 33 34 34 35 35 36 36 36 37 38 38 39 40 41 42 43 44 45 46 47 48 49 49 50 51 52 52 53 55 55 55 55 56 57 58 59 61 63 62 62 62 63 64 66 68 71 72 75 76 72 73 80 82 79 80 80 79 79 79 78 79 81 84 86 86 87 87 88
23 24 24 25 25 26 27 27 28 28 29 30 30 31 32 33 34 34 35 36 36 37 37 38 38 39 39 40 40 41 42 43 44 44 46 47 48 49 49 50 51 52 52 53 53 54 54 55 57 59 59 59 59 59 60 61 63 65 66 66 66 66 67 68 70 71 73 75 78 77 75 80 84 82 82 83 82 82 82 81 81 82 84 86 87 88 88 88
25 25 26 27 27 28 29 30 31 31 31 32 33 33 34 35 36 37 38 39 39 40 40 41 41 42 42 43 44 44 45 46 47 48 49 50 51 51 52 52 53 54 54 55 56 56 57 57 58 60 62 63 63 62 62 62 64 67 69 69 70 70 70 71 73 73 74 76 79 80 77 80 85 84 83 84 84 85 85 84 83 83 85 87 88 88 89 89
27 27 28 28 29 30 31 32 33 34 34 35 36 36 37 38 39 39 40 41 42 43 43 44 45 45 46 47 47 48 49 49 50 51 51 52 53 54 54 55 55 56 57 57 58 59 59 60 60 60 62 66 67 67 66 65 66 69 72 73 74 73 73 74 76 76 77 77 80 83 80 79 85 86 85 87 87 87 89 88 86 85 85 87 89 89 90 90
28 29 29 30 31 32 33 34 35 36 37 38 38 39 39 40 41 41 42 43 44 45 46 46 47 48 48 49 50 51 51 52 53 54 54 54 55 56 57 57 58 59 59 60 61 62 62 63 63 62 62 64 68 70 69 68 68 70 73 76 76 76 75 75 77 78 78 78 80 84 82 80 86 88 87 89 89 89 91 92 90 88 87 88 90 90 90 90
30 31 31 32 33 33 34 35 36 37 38 39 40 41 41 42 43 43 44 45 46 47 48 49 50 50 51 52 52 53 54 55 55 56 57 58 58 59 59 60 61 61 62 63 63 64 64 65 67 66 64 64 66 69 69 67 67 70 73 76 77 77 76 77 79 79 80 79 80 85 84 82 86 88 87 90 92 91 93 93 92 90 89 89 91 91 91 91
32 33 33 34 34 35 36 37 38 39 40 40 41 42 43 44 45 46 47 48 49 50 50 51 52 53 54 55 55 57 57 58 58 59 60 60 61 62 62 63 64 65 65 66 66 66 65 66 69 69 69 69 70 72 72 70 69 71 74 78 79 79 78 80 81 82 83 81 82 86 86 84 87 88 87 90 91 91 92 93 92 91 89 90 92 91 91 91
33 34 35 36 36 37 38 39 40 40 42 42 43 45 45 47 48 49 50 51 52 53 54 55 55 56 57 58 59 60 60 61 61 62 62 63 64 64 65 66 67 67 68 68 68 69 67 67 70 71 71 72 74 77 77 75 74 75 77 81 83 82 81 83 84 85 85 84 84 86 86 86 89 89 88 90 91 91 92 93 93 91 89 90 92 92 91 92
35 37 38 38 39 40 41 42 43 44 45 46 47 48 49 50 52 53 54 55 56 57 57 58 59 59 60 61 62 62 63 63 64 64 65 65 66 67 67 68 69 69 70 71 71 72 71 70 72 73 72 74 77 79 80 79 78 78 81 85 86 85 85 85 86 88 87 86 86 86 86 87 90 90 88 90 91 91 92 94 94 92 90 90 92 92 92 92
37 39 40 41 42 43 44 45 46 47 48 49 50 51 52 54 55 56 57 58 58 59 60 60 61 62 63 63 64 64 64 65 65 66 67 67 68 69 69 70 71 72 72 73 74 75 75 74 74 75 73 75 79 81 82 82 81 82 84 88 90 88 88 88 88 89 89 88 88 87 86 87 90 90 89 90 91 92 93 95 96 94 91 91 93 93 93 94
38 39 40 41 43 44 45 47 48 49 50 51 52 54 55 55 57 58 58 59 60 61 61 62 63 64 64 65 65 65 66 66 67 67 69 69 70 71 72 72 73 74 75 76 77 78 79 78 79 79 76 76 80 83 84 84 84 85 87 91 92 91 90 89 89 90 90 89 88 86 86 87 89 89 89 89 90 92 93 95 96 95 92 93 95 95 95 96
38 39 40 41 42 44 45 47 48 49 51 52 53 54 55 56 57 58 59 60 60 61 62 63 63 65 66 66 67 67 67 68 69 70 70 71 72 74 75 75 76 77 78 79 80 81 82 83 83 83 81 79 82 85 85 86 87 88 90 92 93 93 91 90 89 90 90 89 87 85 86 88 89 89 89 89 89 91 93 96 98 96 93 94 97 97 98 98
40 41 42 42 43 45 46 47 49 50 51 53 54 55 56 57 58 59 60 61 62 63 64 64 65 66 67 68 69 70 70 71 72 73 73 74 75 76 77 78 79 80 81 82 83 84 86 86 87 87 85 83 85 87 87 87 88 90 93 94 94 93 92 90 89 89 90 89 86 86 88 90 90 90 90 89 88 89 93 97 100 98 95 95 98 99 100 100
Wind_Direction
274 269 266 261 257 251 245 240 235 230 225 220 212 201 187 173 163 158 157 155 152 150 148 148 146 143 140 136 132 129 126 124 124 124 124 125 124 123 120 118 115 113 113 114 115 115 114 112 110 108 106 105 105 103 103 102 101 101 98 94 85 71 59 46 33 21 10 0 353 348 343 339 335 332 329 326 323 322 321 321 321 321 321 321 320 318 317 316
268 262 255 248 240 232 225 218 210 201 192 181 169 157 149 145 144 144 145 145 143 141 140 139 136 134 130 127 125 124 123 124 124 124 124 122 120 118 115 114 113 113 114 114 113 112 110 108 107 106 106 107 106 104 103 102 100 96 91 83 70 59 48 36 25 16 7 358 352 348 344 340 338 335 331 329 327 325 324 323 323 322 321 321 321 320 320 320
255 245 235 224 214 204 194 184 173 164 155 148 142 137 135 134 134 134 135 136 134 132 130 130 130 128 125 124 124 124 124 124 123 122 120 117 115 114 114 114 113 113 113 112 112 111 111 110 109 108 108 107 105 102 100 98 94 89 82 71 60 50 39 28 19 13 4 356 351 348 344 341 339 336 334 332 330 328 327 326 325 324 323 323 323 323 323 324
226 211 198 188 178 169 160 152 145 140 136 133 130 128 127 126 125 126 127 127 125 124 125 126 127 125 124 124 124 123 123 122 120 118 116 115 115 115 115 115 115 115 114 114 114 113 112 111 109 108 107 105 101 98 96 93 88 81 71 62 54 44 34 23 16 10 2 356 352 349 345 341 339 337 336 335 332 331 329 328 328 327 327 327 327 326 327 327
172 165 158 152 147 142 137 134 131 129 127 125 122 121 120 120 121 121 121 121 121 122 124 125 125 123 122 122 122 121 120 119 118 116 116 116 116 117 117 117 117 117 116 116 114 113 112 110 108 106 104 102 99 95 92 90 82 70 61 55 47 37 28 19 13 7 1 357 353 349 345 342 340 339 337 335 334 333 332 331 330 330 330 330 330 329 329 329
136 135 133 132 131 129 128 126 125 123 121 119 117 117 118 118 118 118 119 121 123 124 124 124 122 121 121 121 120 120 118 117 116 116 117 118 118 119 119 119 118 117 116 115 114 113 112 110 108 104 102 101 96 91 86 81 70 59 51 45 37 29 21 15 10 5 360 356 352 348 346 343 341 338 337 336 335 335 335 334 333 332 332 332 332 332 331 331
121 123 124 125 124 124 123 121 119 117 116 115 115 116 117 117 118 120 122 124 124 124 122 121 120 120 120 120 119 118 117 117 118 118 119 119 119 119 118 118 117 116 115 114 114 113 112 109 104 101 102 100 92 85 78 67 56 48 40 34 26 18 13 9 5 1 357 353 350 347 345 343 340 338 337 337 337 337 337 336 335 334 333 334 334 334 334 333
118 120 121 121 120 119 118 116 115 114 114 115 115 117 118 119 121 122 124 124 123 121 120 120 120 120 119 118 118 118 119 119 120 120 120 120 119 118 117 117 116 116 115 114 114 112 110 105 102 101 101 97 88 79 68 56 47 38 31 23 14 10 7 3 359 355 352 349 348 346 343 341 340 339 338 338 339 339 339 338 337 335 334 335 335 335 335 334
117 117 117 117 116 115 114 114 114 115 115 117 118 119 121 122 123 123 123 122 121 120 120 120 120 119 119 119 119 120 120 120 121 120 120 119 118 118 117 116 116 115 115 114 112 110 107 103 101 99 95 88 79 69 59 49 39 30 22 14 8 6 1 356 352 350 348 346 345 344 342 341 340 339 339 340 340 340 340 339 338 337 336 336 336 336 336 335
115 115 114 114 113 113 114 115 115 117 118 119 121 122 122 123 122 122 122 121 121 120 120 119 120 120 120 120 121 121 121 120 120 120 119 118 118 118 117 117 116 115 113 111 110 107 104 102 99 93 85 76 66 57 48 40 31 22 16 9 6 2 356 350 347 346 344 344 344 343 342 341 340 340 340 341 341 340 340 340 339 338 338 338 338 337 337 336
114 113 113 114 114 115 116 117 118 120 121 122 122 122 122 122 122 122 122 121 121 120 120 120 121 121 121 120 120 121 120 120 119 119 118 118 118 118 118 117 115 114 112 110 107 104 102 101 96 86 74 63 54 44 36 29 20 14 9 5 3 359 352 348 345 343 342 343 343 343 342 341 340 340 341 341 341 340 341 342 341 340 339 339 338 338 337 337
113 114 114 115 116 117 119 120 121 122 123 123 123 122 122 122 122 122 121 121 121 121 121 122 122 121 120 119 120 120 119 119 119 119 119 119 119 120 118 116 114 113 111 107 103 101 100 97 89 78 64 51 40 31 25 18 11 6 2 1 360 355 349 346 344 342 341 341 340 341 341 340 340 340 340 340 341 341 342 343 342 341 340 339 339 338 338 338
115 115 116 117 119 120 121 122 123 123 123 123 123 122 122 122 122 122 122 122 121 121 122 122 121 120 119 118 120 120 119 119 119 119 119 119 119 119 116 112 110 109 106 101 98 96 92 84 75 67 54 38 27 22 16 10 5 2 360 359 355 351 348 346 343 341 339 336 336 338 339 340 340 340 340 341 341 342 343 343 343 342 341 339 339 339 339 340
116 117 119 120 121 122 123 124 124 124 124 123 123 123 123 123 123 122 122 122 122 121 121 122 121 119 119 120 121 121 120 119 118 118 118 117 115 114 111 107 104 102 97 91 88 86 78 65 54 48 39 25 19 15 9 6 3 1 359 355 352 348 346 344 341 338 335 333 335 337 340 341 341 341 341 341 341 342 343 343 343 342 341 340 339 340 341 342
119 120 121 122 123 124 125 125 125 125 124 124 124 124 124 124 124 123 123 123 122 122 122 121 120 120 122 122 121 120 119 118 117 118 117 114 112 110 107 104 102 101 96 88 81 76 65 51 38 31 23 15 12 9 5 3 1 360 357 352 348 345 343 341 338 335 333 334 336 339 341 342 342 342 341 341 341 342 343 343 343 342 342 341 340 341 343 343
121 122 123 124 125 125 126 126 125 125 125 125 125 126 125 125 124 124 123 123 122 122 122 121 120 122 123 121 120 120 118 116 116 116 114 110 107 105 103 100 98 95 91 85 78 68 57 44 33 21 11 8 6 4 2 1 360 358 354 349 346 343 341 340 337 335 334 336 338 340 342 342 342 342 341 341 341 342 343 343 343 343 342 342 341 342 344 344
123 124 125 126 126 126 126 126 126 126 126 127 127 127 126 125 125 125 124 124 123 123 122 120 122 125 123 120 119 119 116 114 115 112 108 104 102 103 101 94 88 78 71 63 50 36 30 31 29 16 3 0 1 1 359 357 356 355 352 348 344 342 340 339 337 336 336 336 338 339 340 341 341 341 341 341 341 342 342 343 343 343 343 342 342 343 345 345
124 125 126 127 127 127 127 127 127 127 128 128 128 127 127 127 126 126 125 125 124 122 121 122 126 125 121 119 118 116 114 114 114 110 105 103 104 104 100 94 83 68 51 38 24 12 5 9 20 12 356 353 357 359 357 354 353 353 351 346 343 341 339 338 338 337 336 336 337 338 339 339 340 340 340 340 341 342 342 343 343 343 343 342 342 344 345 345
126 126 127 128 128 128 128 128 129 129 129 129 128 128 128 128 128 127 127 126 123 122 123 126 128 125 121 120 117 116 116 116 114 110 107 107 106 104 103 93 77 62 46 31 16 6 358 356 9 5 350 349 354 355 355 351 350 350 348 343 341 340 338 337 337 335 335 334 335 337 337 338 339 339 339 340 341 342 343 343 343 343 343 342 343 344 345 344
127 128 128 129 129 129 130 130 130 130 129 129 129 128 128 129 129 128 128 126 124 125 127 129 130 127 124 122 120 119 119 117 115 112 110 109 107 105 92 71 54 47 33 18 3 354 348 351 360 353 342 347 351 351 351 348 347 347 344 340 339 338 337 337 335 333 332 333 334 336 336 337 338 338 339 340 341 342 343 343 343 343 343 343 343 344 344 343
128 129 129 130 130 130 131 131 131 131 130 130 130 130 129 130 130 129 129 128 127 129 131 133 133 129 126 125 125 123 122 121 117 115 111 104 98 86 61 34 14 23 14 357 344 341 344 350 348 339 337 344 348 349 348 345 344 343 339 337 336 336 336 335 333 331 331 332 333 334 335 336 337 337 339 340 342 342 343 343 343 342 342 343 343 343 342 342
130 130 131 131 132 132 132 133 133 133 132 132 131 131 131 132 131 130 131 130 130 132 134 138 135 129 128 128 128 128 127 125 119 112 99 76 61 55 34 350 5 14 356 338 339 344 344 341 333 330 335 340 344 346 344 341 340 339 336 334 334 334 334 333 331 330 330 332 333 334 335 336 337 338 339 340 342 342 343 343 343 342 342 342 343 342 341 341
132 132 133 134 134 134 134 135 135 135 134 134 134 133 132 133 131 130 133 133 132 135 138 139 134 131 132 131 132 134 133 125 113 99 78 43 355 2 1 354 3 358 342 338 342 339 332 326 325 329 333 337 341 343 341 339 337 336 333 332 332 332 332 331 330 330 331 332 334 334 335 336 337 338 339 340 341 342 342 342 342 341 341 342 342 341 340 340
133 134 135 135 136 136 136 137 137 137 137 137 137 136 136 136 133 134 138 136 135 139 141 139 137 136 137 139 141 143 139 127 109 92 72 301 295 345 1 356 351 344 339 334 331 327 323 322 324 329 333 336 339 340 338 337 335 333 330 329 330 330 330 330 329 330 332 333 334 335 336 337 338 338 338 339 340 341 341 341 341 340 340 341 341 340 340 340
135 136 136 137 138 138 138 139 139 139 139 139 139 139 140 140 138 140 144 140 138 141 142 142 143 145 148 152 152 151 146 132 122 202 242 273 328 354 353 344 339 334 328 321 321 324 322 323 327 331 334 336 338 337 335 333 331 329 327 327 328 329 330 330 330 331 333 333 334 336 337 337 337 337 338 338 339 340 340 339 339 339 340 340 339 339 339 340
137 137 138 139 140 140 141 141 141 142 142 141 141 141 143 141 141 144 149 148 143 143 147 150 152 157 167 168 165 166 166 166 226 248 262 304 340 344 338 333 329 322 316 317 323 325 323 325 329 332 334 335 335 333 331 330 328 327 326 327 328 329 329 330 331 332 332 333 334 335 336 336 337 337 337 338 338 338 338 338 338 338 339 339 338 339 339 340
139 139 140 141 142 143 143 143 144 145 145 144 143 144 145 144 144 148 153 159 157 153 157 162 162 172 192 195 192 207 232 247 257 271 296 320 330 329 326 327 323 319 320 324 325 324 324 327 330 332 333 333 331 329 328 328 327 326 326 327 328 329 329 330 331 331 331 332 333 334 335 335 336 336 337 337 337 336 336 336 337 337 338 338 338 338 339 340
141 142 143 144 145 146 146 146 147 148 147 147 147 148 149 148 150 154 159 166 173 172 174 184 189 200 220 233 247 260 269 274 283 300 313 318 319 320 322 322 322 322 325 326 324 324 326 328 329 330 329 328 327 326 326 327 326 326 327 327 328 328 329 330 331 330 329 331 332 333 334 335 335 336 336 336 336 334 334 336 336 337 337 337 338 338 339 340
144 145 146 147 149 149 149 150 151 151 150 150 151 153 155 155 157 162 166 177 195 204 210 225 239 253 265 270 276 279 285 290 297 303 309 312 314 317 318 320 322 324 324 323 322 323 324 325 325 326 325 325 325 325 325 326 326 326 326 327 327 328 329 329 329 328 328 329 330 332 332 333 334 335 334 334 334 334 334 335 336 336 336 337 337 338 339 339
147 148 149 151 152 154 154 155 156 157 156 157 158 161 164 164 169 173 179 198 224 248 273 285 287 285 285 284 284 285 288 292 296 300 305 309 313 316 319 320 321 320 319 320 321 321 321 321 322 323 323 323 324 324 324 325 325 325 325 326 326 327 328 328 327 327 328 328 329 330 331 331 332 333 333 332 333 334 334 335 335 336 336 336 337 338 338 339
152 153 154 155 158 160 162 163 165 166 167 168 171 175 177 180 186 193 205 226 245 265 281 289 291 288 283 283 285 287 288 290 295 300 305 310 315 318 319 319 318 317 318 319 319 318 319 320 321 322 322 323 323 323 323 323 324 324 324 325 325 326 326 326 327 328 328 327 327 328 329 329 329 330 331 331 332 333 334 335 335 335 336 336 337 337 337 338
158 160 161 163 166 168 171 173 176 178 179 182 186 192 195 201 211 220 232 243 250 261 271 279 287 288 284 284 286 288 290 293 298 304 309 313 316 317 316 315 315 316 317 316 316 316 317 319 320 320 321 321 321 321 321 322 322 322 323 323 323 323 324 325 326 328 328 326 325 325 327 329 328 329 330 331 332 333 334 334 335 334 335 336 336 336 336 337
167 169 170 172 175 178 181 184 187 190 192 195 201 207 213 220 227 235 243 249 254 261 268 277 285 289 288 288 290 292 295 299 303 307 310 313 314 314 314 315 314 314 314 314 314 315 316 317 318 318 319 319 319 320 320 320 321 321 321 321 321 321 322 322 323 326 326 325 324 323 325 328 329 328 329 331 332 333 333 334 333 333 334 335 335 335 335 336
176 178 180 182 185 188 192 195 199 202 204 208 213 219 225 231 236 241 246 252 258 264 271 279 286 290 291 292 294 296 298 301 304 307 309 311 312 312 313 312 311 311 311 312 313 313 314 315 315 316 317 317 318 318 319 319 320 320 320 320 320 320 321 321 322 323 324 324 323 322 323 326 329 328 328 330 331 332 333 332 332 332 333 334 334 334 335 335
185 187 190 193 196 200 204 209 213 216 218 221 226 231 236 241 245 249 253 258 263 269 275 281 286 289 291 293 295 297 300 303 305 307 308 309 309 309 309 308 308 309 310 311 311 312 312 313 313 314 315 315 316 316 317 317 318 318 319 319 319 320 321 322 322 322 323 323 323 322 321 323 327 327 327 328 329 331 331 330 331 331 332 332 332 333 334 335
193 196 200 203 207 212 216 220 225 229 232 235 239 243 247 251 254 257 261 264 268 273 278 282 285 288 290 292 295 297 300 302 303 304 305 306 306 306 307 307 308 309 309 310 311 311 312 312 313 313 313 313 314 314 315 315 316 316 317 318 319 319 320 321 321 320 320 322 323 322 319 320 325 325 325 327 328 328 329 329 330 331 331 331 332 332 334 334
202 205 209 212 216 221 225 228 232 235 239 243 247 250 254 257 260 263 266 269 272 276 279 282 285 287 289 292 294 296 298 299 301 302 303 304 305 305 306 307 308 309 309 310 310 311 311 311 311 312 312 312 313 313 314 314 314 315 316 316 317 318 319 319 319 318 318 320 322 323 319 317 321 324 324 326 327 327 328 329 330 330 330 331 331 332 333 334
210 213 216 220 224 228 230 233 236 239 243 246 249 253 256 260 262 265 268 271 274 277 279 282 284 287 289 291 293 295 297 298 300 301 302 303 304 305 306 307 308 308 309 310 310 310 310 310 310 311 312 312 312 313 313 314 314 314 314 315 316 317 317 317 316 316 318 318 320 324 321 317 319 324 324 325 326 327 329 329 330 330 330 330 331 332 332 333
217 220 223 226 230 233 236 238 240 243 246 249 251 254 258 261 263 266 268 271 273 277 280 282 285 287 289 291 292 294 296 297 299 300 301 302 303 304 305 306 307 307 308 308 309 309 309 310 310 309 310 311 311 312 313 313 313 313 313 313 314 315 315 316 316 317 318 318 318 322 323 318 319 323 324 325 326 327 328 329 329 330 330 330 330 331 331 333
224 226 230 233 236 238 241 242 244 247 250 252 254 257 260 262 265 267 269 271 274 277 280 283 285 287 289 290 292 293 295 296 298 299 300 301 302 303 304 305 305 306 306 307 308 308 309 309 309 309 309 310 310 311 312 313 313 312 312 312 312 313 314 315 316 317 317 318 317 320 323 321 320 323 324 325 326 326 327 328 329 330 330 329 330 330 331 332
229 232 234 237 240 242 245 247 249 251 253 255 258 260 263 265 267 269 271 273 275 277 280 283 285 287 288 290 291 293 294 295 296 298 299 300 301 302 302 303 304 304 305 306 306 307 308 309 310 310 310 309 309 310 311 312 313 312 312 312 312 313 314 315 316 316 316 317 317 319 323 322 321 322 324 324 325 325 325 327 329 330 329 329 329 330 330 331
231 234 236 239 242 244 246 249 251 253 255 258 260 263 265 267 269 271 272 274 276 278 280 282 284 286 287 289 290 291 293 294 295 296 298 299 300 301 301 302 303 304 304 305 306 306 307 308 309 310 310 310 309 309 310 311 312 311 311 311 312 313 314 315 314 315 315 316 317 318 321 323 321 321 323 324 324 325 325 327 328 329 329 328 328 329 330 330
235 237 239 241 243 245 247 250 252 254 256 258 261 263 266 268 270 271 273 275 277 279 280 282 284 285 286 288 289 290 291 293 294 295 296 298 299 300 301 302 302 303 303 304 305 305 306 306 307 308 310 310 310 310 310 311 313 313 312 312 312 313 314 314 314 314 315 316 317 317 319 322 321 321 323 323 323 325 325 326 327 328 329 328 328 328 329 330
239 241 243 245 246 248 250 251 253 255 257 259 262 264 267 269 271 273 275 276 278 280 281 282 284 285 287 288 289 290 291 292 294 295 296 297 298 299 300 301 301 302 303 303 304 304 305 306 305 306 308 309 310 310 310 312 313 313 312 311 310 311 312 312 312 312 313 315 317 316 318 321 321 320 323 323 323 325 325 325 326 327 328 328 327 328 328 329
245 247 249 250 252 253 255 256 258 259 261 263 265 267 269 271 273 275 277 278 280 281 282 283 285 286 287 288 290 290 292 292 293 294 295 296 297 298 299 300 301 301 302 302 303 303 305 305 305 305 306 306 306 306 306 308 309 309 309 308 307 308 309 310 310 311 312 314 316 315 317 321 320 320 322 322 323 325 324 323 324 326 327 327 326 327 327 328
250 252 254 255 257 258 260 261 263 264 265 267 269 270 272 274 276 277 279 280 281 282 283 285 286 287 288 289 290 291 292 293 293 294 295 296 297 298 299 299 300 301 301 301 302 302 304 305 304 305 306 306 305 304 304 305 307 308 308 306 305 307 309 310 310 311 312 313 315 315 317 320 319 319 322 322 322 323 322 322 323 324 326 326 325 326 326 326
255 257 258 260 261 263 264 266 267 269 270 272 273 274 275 277 278 280 281 282 283 284 285 286 287 288 288 289 290 291 292 293 293 294 295 296 297 297 298 299 300 300 300 301 301 301 302 303 303 304 305 306 306 304 304 306 307 308 308 307 306 307 309 310 311 311 312 314 315 315 318 320 319 319 321 321 321 321 321 321 322 323 325 325 324 324 325 325
258 260 261 263 264 266 267 269 271 272 273 274 276 277 278 279 280 281 282 283 284 285 286 287 287 288 289 290 290 291 292 293 294 294 295 296 296 297 298 298 299 299 300 300 300 300 301 301 301 301 304 306 305 303 303 305 307 308 309 307 306 308 309 310 310 311 312 314 315 315 318 319 318 319 320 320 320 320 320 320 320 322 324 324 323 323 323 324
258 260 261 263 265 266 268 269 271 272 274 275 276 277 279 279 281 281 282 283 284 285 285 286 287 288 289 289 290 291 292 293 293 294 295 295 296 296 297 297 298 298 299 299 299 299 299 299 299 299 301 304 304 303 303 305 307 308 308 307 306 307 308 309 310 311 312 313 314 315 318 318 317 318 319 319 319 319 319 319 319 320 323 323 321 322 322 323
260 262 263 264 266 267 268 270 271 272 274 275 276 277 278 279 280 281 282 283 283 284 285 285 286 287 288 289 289 290 291 292 292 293 294 294 295 295 296 296 297 297 298 298 298 298 298 299 299 299 300 303 303 303 303 305 306 307 307 305 305 306 307 308 309 310 311 312 313 315 317 316 316 316 317 318 318 318 318 317 317 319 321 321 320 320 321 321
262 264 265 266 267 269 270 271 272 273 274 275 276 276 277 278 279 280 281 282 282 283 284 285 286 286 287 288 288 289 290 290 291 292 292 293 294 294 295 295 296 297 297 297 298 298 298 299 299 299 301 302 302 302 303 304 305 306 304 303 304 304 305 307 308 309 309 311 313 315 316 315 314 315 316 316 317 317 317 316 316 317 320 319 318 319 319 320
264 265 266 267 269 270 270 271 272 273 274 275 276 277 277 278 279 280 281 281 282 282 283 284 285 286 286 287 287 288 289 290 290 291 292 293 293 294 294 295 296 296 297 297 297 298 298 299 299 300 301 302 302 301 302 303 304 304 302 301 302 303 304 305 307 308 309 310 313 315 315 314 314 314 314 314 315 316 316 315 314 315 317 317 317 317 318 318
Height
10650 10649 10649 10648 10648 10649 10649 10650 10651 10652 10652 10653 10654 10655 10656 10657 10658 10659 10661 10662 10664 10666 10668 10670 10672 10675 10677 10680 10683 10685 10687 10690 10692 10694 10696 10699 10702 10705 10709 10712 10715 10718 10722 10725 10728 10730 10732 10734 10735 10737 10738 10739 10740 10742 10743 10744 10745 10746 10747 10747 10747 10747 10746 10746 10745 10745 10744 10742 10741 10740 10738 10737 10735 10733 10731 10728 10726 10723 10720 10717 10715 10712 10709 10706 10702 10699 10695 10692
10647 10646 10646 10646 10647 10647 10648 10649 10650 10651 10652 10653 10654 10655 10656 10657 10659 10660 10662 10664 10665 10667 10670 10672 10675 10678 10680 10682 10685 10687 10688 10691 10694 10696 10699 10703 10706 10709 10713 10716 10718 10722 10725 10728 10731 10733 10734 10736 10738 10739 10741 10742 10743 10744 10745 10747 10747 10748 10748 10748 10747 10747 10747 10746 10745 10744 10743 10742 10740 10739 10737 10736 10734 10732 10729 10727 10724 10721 10718 10715 10712 10709 10706 10703 10699 10695 10691 10688
10645 10645 10645 10645 10646 10647 10648 10649 10650 10651 10652 10653 10655 10656 10657 10659 10661 10662 10664 10666 10668 10670 10673 10675 10678 10680 10682 10684 10686 10689 10691 10694 10697 10700 10704 10707 10710 10714 10717 10719 10722 10725 10728 10731 10733 10735 10737 10738 10740 10742 10744 10745 10746 10747 10748 10749 10749 10749 10749 10748 10748 10747 10747 10746 10745 10744 10743 10741 10740 10738 10736 10734 10732 10730 10728 10725 10722 10719 10716 10713 10709 10706 10703 10700 10696 10692 10688 10684
10644 10644 10645 10645 10646 10647 10648 10649 10650 10652 10653 10655 10656 10658 10660 10662 10663 10666 10668 10670 10672 10674 10677 10679 10681 10682 10684 10687 10689 10693 10695 10698 10702 10705 10709 10712 10715 10718 10720 10722 10724 10727 10730 10733 10735 10738 10739 10741 10742 10745 10746 10747 10748 10749 10750 10750 10750 10750 10749 10749 10748 10747 10746 10746 10744 10743 10742 10740 10739 10737 10735 10733 10731 10728 10726 10723 10720 10717 10713 10710 10707 10703 10700 10696 10692 10687 10683 10679
10644 10645 10645 10646 10647 10648 10649 10651 10652 10654 10656 10657 10659 10661 10663 10665 10667 10669 10671 10673 10675 10678 10680 10682 10684 10686 10688 10692 10695 10698 10701 10703 10707 10710 10713 10716 10718 10721 10723 10725 10727 10729 10732 10735 10737 10739 10741 10743 10745 10746 10748 10749 10749 10750 10751 10751 10751 10750 10750 10749 10748 10747 10746 10745 10744 10742 10741 10739 10737 10735 10733 10731 10729 10726 10724 10721 10718 10714 10710 10707 10703 10699 10696 10692 10688 10683 10679 10675
10645 10646 10647 10648 10649 10650 10652 10654 10655 10657 10659 10661 10663 10665 10667 10669 10671 10673 10675 10678 10679 10681 10684 10686 10688 10691 10694 10698 10701 10704 10706 10709 10711 10714 10717 10720 10722 10725 10726 10728 10730 10732 10735 10737 10739 10741 10743 10745 10746 10747 10749 10750 10750 10751 10752 10752 10751 10750 10749 10748 10748 10747 10746 10744 10743 10741 10739 10737 10736 10734 10732 10729 10727 10725 10722 10719 10715 10712 10708 10704 10700 10696 10692 10688 10684 10680 10676 10671
10648 10648 10649 10651 10652 10654 10655 10657 10659 10661 10663 10665 10667 10669 10671 10673 10675 10677 10680 10682 10684 10685 10688 10691 10694 10697 10700 10704 10707 10709 10711 10713 10716 10719 10722 10724 10726 10728 10730 10732 10733 10735 10737 10740 10742 10744 10745 10746 10747 10749 10750 10751 10751 10751 10751 10751 10750 10750 10749 10748 10748 10747 10745 10743 10742 10740 10738 10736 10734 10732 10730 10728 10725 10723 10720 10716 10713 10709 10705 10700 10696 10692 10688 10684 10680 10676 10672 10667
10651 10652 10653 10655 10656 10658 10659 10661 10663 10665 10668 10670 10672 10674 10676 10678 10680 10683 10685 10687 10689 10691 10693 10696 10700 10703 10705 10709 10712 10714 10715 10718 10721 10723 10726 10728 10730 10732 10734 10735 10737 10739 10740 10742 10744 10746 10747 10748 10748 10750 10752 10751 10751 10751 10751 10751 10750 10750 10749 10748 10747 10746 10744 10742 10740 10738 10736 10734 10732 10730 10728 10725 10723 10720 10717 10713 10710 10706 10701 10697 10693 10689 10685 10681 10677 10672 10668 10664
10655 10656 10658 10659 10661 10662 10664 10666 10668 10670 10673 10675 10678 10680 10682 10684 10686 10689 10691 10693 10695 10697 10700 10702 10706 10709 10711 10713 10717 10720 10720 10722 10725 10727 10729 10731 10733 10735 10737 10739 10740 10742 10744 10745 10746 10748 10748 10749 10750 10752 10753 10752 10752 10751 10751 10751 10750 10749 10749 10748 10746 10744 10742 10741 10739 10737 10734 10732 10730 10728 10725 10723 10720 10717 10713 10710 10706 10702 10698 10695 10690 10686 10682 10677 10673 10669 10665 10660
10660 10661 10662 10664 10666 10667 10670 10672 10674 10676 10679 10681 10683 10685 10688 10690 10693 10695 10697 10698 10700 10703 10706 10709 10711 10714 10716 10717 10721 10724 10725 10726 10729 10731 10733 10735 10737 10739 10741 10742 10744 10745 10746 10747 10749 10749 10750 10752 10752 10753 10753 10753 10752 10752 10752 10751 10750 10749 10748 10746 10744 10742 10741 10739 10737 10735 10732 10730 10727 10725 10722 10719 10716 10713 10709 10706 10702 10699 10695 10691 10687 10683 10678 10674 10670 10665 10661 10657
10665 10666 10668 10669 10671 10673 10675 10678 10680 10682 10685 10687 10689 10691 10694 10696 10699 10701 10703 10704 10706 10708 10711 10714 10717 10719 10720 10722 10725 10729 10730 10731 10733 10735 10737 10739 10741 10743 10744 10745 10747 10748 10748 10749 10751 10751 10753 10754 10754 10754 10754 10754 10753 10753 10752 10750 10749 10748 10746 10745 10742 10740 10739 10737 10735 10733 10730 10727 10725 10722 10719 10716 10713 10709 10706 10703 10700 10696 10692 10688 10684 10679 10674 10670 10666 10662 10658 10653
10670 10672 10673 10675 10677 10679 10681 10683 10686 10688 10690 10693 10695 10697 10699 10702 10705 10707 10709 10711 10712 10713 10715 10719 10722 10724 10725 10727 10730 10733 10735 10736 10737 10739 10741 10743 10745 10746 10747 10748 10749 10751 10751 10751 10752 10754 10755 10755 10755 10754 10754 10754 10754 10753 10751 10750 10749 10747 10745 10743 10741 10739 10737 10735 10733 10730 10727 10725 10723 10720 10717 10714 10711 10707 10704 10701 10698 10694 10689 10685 10680 10675 10671 10666 10662 10658 10654 10649
10676 10678 10679 10681 10683 10685 10687 10689 10691 10694 10696 10698 10701 10703 10705 10708 10711 10713 10715 10717 10718 10720 10721 10723 10726 10728 10729 10732 10736 10737 10738 10740 10742 10743 10745 10747 10749 10750 10750 10750 10752 10753 10754 10754 10755 10756 10756 10756 10756 10755 10755 10755 10754 10752 10750 10749 10747 10745 10743 10741 10739 10737 10736 10733 10731 10729 10726 10724 10721 10718 10715 10712 10709 10705 10702 10698 10694 10690 10686 10682 10677 10672 10668 10663 10659 10654 10649 10644
10682 10684 10686 10688 10689 10691 10693 10695 10697 10699 10702 10704 10706 10708 10711 10714 10716 10718 10720 10722 10723 10725 10727 10728 10729 10732 10733 10736 10739 10741 10742 10744 10745 10747 10749 10750 10752 10753 10753 10753 10754 10755 10756 10756 10757 10758 10758 10758 10757 10756 10755 10755 10753 10751 10750 10748 10746 10743 10741 10739 10738 10736 10734 10732 10730 10727 10725 10722 10719 10716 10712 10709 10705 10701 10698 10694 10690 10686 10682 10678 10674 10669 10664 10660 10655 10649 10644 10638
10688 10690 10692 10694 10695 10697 10699 10701 10703 10705 10707 10709 10711 10713 10716 10718 10721 10723 10725 10727 10728 10729 10731 10733 10734 10735 10738 10739 10742 10745 10746 10747 10749 10751 10752 10752 10754 10756 10756 10756 10756 10757 10757 10757 10759 10759 10758 10758 10757 10756 10755 10754 10752 10751 10749 10747 10745 10742 10740 10739 10737 10735 10733 10731 10728 10726 10723 10719 10716 10712 10708 10705 10701 10697 10694 10690 10686 10682 10678 10674 10670 10665 10660 10655 10650 10644 10638 10632
10693 10695 10697 10700 10701 10703 10705 10707 10709 10711 10712 10714 10716 10718 10720 10723 10725 10727 10729 10731 10733 10734 10736 10737 10739 10741 10742 10743 10746 10748 10749 10751 10752 10754 10755 10755 10756 10757 10758 10758 10758 10758 10758 10759 10759 10759 10758 10757 10756 10755 10755 10753 10752 10750 10748 10746 10744 10742 10740 10738 10736 10734 10731 10729 10726 10723 10719 10716 10712 10708 10705 10701 10698 10694 10690 10686 10682 10678 10675 10671 10666 10661 10655 10650 10645 10639 10633 10627
10699 10701 10703 10705 10707 10709 10711 10713 10714 10716 10718 10719 10721 10722 10724 10726 10729 10731 10734 10735 10737 10739 10740 10741 10744 10747 10747 10747 10749 10751 10752 10754 10755 10756 10757 10757 10758 10759 10759 10759 10759 10759 10759 10759 10759 10759 10758 10756 10755 10754 10754 10753 10751 10749 10747 10745 10743 10741 10739 10737 10734 10732 10729 10726 10723 10719 10715 10712 10708 10705 10702 10698 10695 10691 10687 10683 10679 10675 10671 10666 10662 10656 10651 10646 10640 10634 10628 10622
10705 10707 10708 10711 10712 10714 10716 10718 10720 10721 10723 10725 10726 10727 10728 10730 10732 10735 10737 10739 10740 10743 10745 10746 10749 10751 10751 10751 10752 10754 10755 10757 10758 10758 10758 10759 10760 10760 10760 10759 10759 10759 10759 10759 10759 10758 10757 10756 10754 10753 10753 10752 10749 10747 10745 10744 10741 10739 10737 10735 10732 10730 10727 10723 10720 10716 10712 10709 10705 10702 10699 10696 10692 10689 10685 10681 10676 10671 10666 10661 10656 10651 10646 10641 10635 10629 10623 10617
10711 10713 10714 10716 10718 10719 10721 10724 10726 10727 10728 10729 10731 10732 10733 10734 10735 10737 10740 10742 10744 10746 10749 10751 10753 10753 10753 10755 10755 10756 10758 10758 10759 10759 10760 10760 10761 10761 10760 10760 10759 10759 10759 10758 10758 10757 10757 10755 10754 10752 10752 10750 10747 10745 10743 10742 10739 10737 10735 10733 10730 10727 10724 10721 10718 10714 10710 10706 10703 10699 10696 10692 10689 10685 10682 10677 10672 10667 10661 10656 10651 10646 10641 10635 10629 10623 10618 10614
10717 10718 10720 10721 10723 10725 10726 10728 10730 10732 10733 10734 10736 10737 10738 10740 10740 10741 10743 10745 10746 10749 10752 10755 10757 10756 10756 10757 10757 10758 10760 10760 10761 10761 10761 10762 10761 10761 10761 10760 10760 10759 10759 10758 10758 10757 10756 10755 10752 10752 10751 10748 10746 10743 10741 10739 10737 10735 10733 10731 10728 10725 10722 10718 10715 10711 10708 10704 10700 10696 10693 10689 10685 10681 10677 10673 10667 10662 10657 10651 10646 10641 10636 10630 10624 10619 10615 10611
10722 10724 10725 10727 10728 10730 10731 10733 10735 10737 10738 10739 10740 10742 10743 10745 10745 10745 10746 10747 10750 10753 10755 10758 10760 10760 10759 10759 10759 10760 10761 10762 10762 10762 10763 10762 10762 10761 10760 10760 10760 10759 10758 10758 10758 10757 10755 10753 10752 10751 10749 10746 10744 10741 10739 10737 10735 10732 10730 10728 10725 10722 10719 10715 10712 10708 10704 10701 10697 10693 10689 10685 10681 10676 10672 10667 10662 10657 10652 10647 10642 10637 10632 10627 10621 10615 10612 10607
10727 10729 10730 10732 10733 10735 10736 10738 10739 10740 10742 10744 10745 10746 10747 10749 10750 10750 10751 10751 10753 10756 10758 10761 10761 10762 10762 10762 10762 10762 10762 10762 10763 10763 10763 10763 10762 10761 10760 10760 10759 10758 10758 10758 10757 10755 10753 10752 10751 10750 10747 10745 10742 10740 10737 10735 10733 10731 10728 10726 10723 10719 10716 10713 10709 10705 10701 10697 10693 10689 10684 10680 10676 10671 10666 10662 10657 10652 10648 10643 10638 10633 10628 10623 10618 10612 10608 10604
10731 10733 10735 10736 10738 10739 10740 10742 10743 10744 10745 10747 10749 10750 10751 10753 10754 10755 10756 10755 10756 10758 10761 10762 10763 10764 10765 10765 10765 10765 10764 10763 10763 10763 10763 10763 10762 10761 10760 10759 10758 10758 10757 10757 10755 10754 10753 10752 10750 10748 10745 10743 10740 10737 10735 10733 10731 10728 10726 10723 10720 10716 10713 10709 10705 10701 10697 10693 10689 10684 10679 10674 10670 10665 10661 10658 10653 10648 10643 10639 10634 10629 10624 10620 10615 10610 10605 10600
10736 10737 10739 10740 10742 10743 10744 10746 10747 10748 10749 10750 10752 10753 10755 10756 10757 10759 10761 10760 10759 10761 10763 10764 10765 10765 10766 10766 10766 10766 10765 10764 10763 10763 10763 10762 10762 10761 10759 10759 10758 10757 10756 10756 10755 10754 10752 10751 10748 10746 10743 10741 10738 10735 10732 10730 10728 10726 10723 10720 10717 10713 10709 10706 10702 10698 10694 10689 10685 10680 10675 10670 10665 10661 10657 10653 10649 10644 10639 10634 10631 10626 10621 10616 10611 10607 10601 10596
10740 10741 10743 10744 10746 10747 10748 10749 10750 10751 10753 10753 10754 10756 10757 10759 10759 10761 10764 10765 10764 10764 10765 10766 10766 10767 10767 10767 10767 10766 10766 10765 10764 10763 10763 10762 10761 10760 10759 10758 10757 10757 10756 10755 10754 10752 10751 10749 10746 10744 10741 10738 10735 10733 10731 10728 10726 10724 10721 10718 10714 10710 10706 10702 10698 10693 10689 10685 10681 10677 10671 10667 10662 10657 10652 10647 10643 10640 10636 10631 10627 10623 10617 10612 10608 10603 10597 10592
10744 10745 10747 10748 10749 10751 10752 10753 10754 10755 10756 10757 10757 10759 10760 10761 10762 10763 10766 10768 10768 10767 10768 10768 10768 10768 10768 10768 10767 10767 10766 10765 10765 10764 10763 10762 10761 10759 10759 10758 10757 10756 10755 10754 10752 10751 10749 10747 10744 10741 10739 10736 10734 10732 10730 10727 10725 10722 10718 10715 10711 10707 10703 10699 10694 10690 10686 10681 10677 10674 10669 10664 10659 10654 10648 10642 10638 10634 10632 10628 10623 10619 10614 10608 10603 10598 10592 10586
10748 10749 10750 10752 10753 10754 10755 10756 10757 10758 10759 10760 10760 10762 10763 10764 10765 10766 10767 10769 10770 10770 10770 10770 10769 10769 10769 10769 10768 10767 10767 10766 10765 10764 10763 10762 10760 10760 10759 10758 10757 10755 10754 10752 10751 10749 10747 10744 10742 10739 10737 10734 10732 10730 10728 10725 10722 10718 10715 10711 10708 10704 10700 10696 10691 10687 10683 10679 10675 10671 10667 10662 10657 10653 10647 10640 10634 10630 10627 10624 10619 10614 10609 10604 10598 10593 10586 10580
10751 10752 10754 10755 10756 10757 10758 10759 10760 10761 10762 10763 10763 10764 10765 10766 10767 10768 10769 10771 10772 10772 10771 10771 10771 10770 10770 10769 10769 10768 10767 10766 10765 10764 10763 10761 10760 10759 10758 10757 10755 10754 10752 10750 10749 10747 10745 10742 10739 10737 10735 10733 10730 10728 10725 10722 10718 10715 10711 10708 10704 10700 10696 10692 10688 10684 10679 10676 10673 10668 10664 10660 10655 10649 10645 10640 10633 10628 10623 10619 10614 10609 10604 10599 10594 10587 10581 10575
10754 10756 10757 10758 10759 10760 10761 10762 10763 10764 10765 10766 10766 10767 10768 10768 10769 10770 10771 10772 10773 10773 10773 10772 10772 10771 10771 10770 10769 10769 10768 10766 10765 10763 10762 10761 10759 10758 10757 10755 10753 10751 10750 10748 10746 10744 10742 10740 10738 10735 10733 10730 10728 10725 10721 10718 10715 10711 10708 10704 10701 10697 10692 10688 10684 10680 10676 10672 10670 10666 10661 10657 10654 10648 10642 10638 10633 10627 10620 10614 10609 10604 10599 10594 10588 10582 10576 10570
10757 10759 10760 10761 10762 10763 10764 10765 10766 10767 10768 10768 10769 10769 10770 10770 10771 10772 10772 10773 10773 10774 10774 10773 10772 10772 10771 10770 10769 10768 10767 10765 10764 10762 10761 10759 10758 10756 10755 10753 10751 10750 10748 10746 10744 10742 10740 10738 10736 10733 10730 10727 10724 10721 10718 10715 10711 10708 10705 10701 10697 10693 10689 10685 10681 10676 10672 10667 10665 10663 10658 10652 10650 10647 10641 10636 10631 10625 10618 10611 10604 10598 10592 10587 10582 10576 10571 10564
10760 10761 10762 10763 10764 10766 10766 10767 10768 10769 10769 10770 10770 10771 10771 10772 10772 10773 10773 10773 10774 10774 10773 10773 10772 10772 10771 10770 10768 10767 10766 10764 10762 10761 10759 10757 10756 10754 10753 10751 10749 10748 10746 10744 10742 10740 10738 10735 10732 10730 10727 10724 10721 10718 10715 10711 10708 10705 10702 10698 10695 10691 10686 10682 10677 10672 10666 10663 10659 10658 10656 10649 10643 10642 10638 10632 10627 10621 10614 10607 10600 10594 10588 10581 10576 10570 10565 10559
10762 10763 10764 10765 10766 10767 10768 10769 10769 10770 10771 10771 10772 10772 10772 10773 10773 10773 10773 10773 10773 10773 10772 10772 10771 10770 10769 10768 10767 10766 10764 10763 10761 10759 10757 10756 10754 10753 10751 10749 10748 10746 10744 10741 10739 10737 10735 10732 10729 10727 10724 10721 10718 10715 10712 10709 10705 10702 10698 10695 10692 10688 10684 10680 10676 10670 10663 10656 10652 10651 10652 10648 10639 10635 10633 10628 10621 10616 10609 10602 10596 10590 10584 10577 10571 10565 10560 10554
10763 10764 10765 10766 10767 10768 10769 10770 10770 10771 10771 10772 10772 10773 10773 10773 10773 10773 10773 10772 10772 10772 10771 10771 10770 10769 10768 10767 10766 10764 10763 10761 10760 10758 10756 10754 10753 10751 10749 10747 10745 10743 10741 10739 10737 10734 10732 10729 10726 10723 10721 10718 10715 10712 10709 10705 10702 10698 10695 10691 10688 10685 10682 10678 10675 10672 10664 10654 10647 10642 10643 10644 10637 10629 10626 10622 10617 10611 10604 10597 10592 10586 10580 10574 10568 10562 10556 10550
10764 10765 10766 10767 10768 10769 10770 10770 10771 10771 10772 10772 10772 10773 10773 10773 10773 10772 10772 10772 10771 10771 10770 10770 10769 10768 10767 10765 10764 10763 10761 10760 10758 10756 10754 10753 10751 10749 10747 10745 10743 10741 10739 10737 10734 10731 10729 10726 10723 10720 10717 10714 10712 10709 10706 10702 10698 10694 10691 10687 10683 10679 10676 10673 10669 10668 10665 10656 10645 10637 10634 10637 10634 10625 10619 10615 10611 10607 10601 10594 10588 10582 10576 10569 10564 10558 10552 10546
10765 10766 10767 10768 10769 10770 10771 10771 10772 10772 10772 10772 10773 10773 10773 10773 10772 10772 10772 10771 10770 10770 10769 10769 10768 10767 10765 10764 10763 10761 10760 10758 10756 10754 10752 10750 10748 10746 10744 10742 10740 10738 10736 10734 10731 10728 10726 10722 10719 10717 10714 10711 10708 10705 10702 10699 10695 10691 10687 10683 10678 10674 10670 10667 10663 10659 10658 10654 10646 10636 10630 10631 10630 10623 10616 10612 10607 10603 10598 10592 10585 10578 10572 10566 10559 10553 10547 10541
10766 10767 10768 10769 10770 10770 10771 10772 10772 10772 10772 10773 10773 10773 10772 10772 10772 10771 10771 10770 10770 10769 10768 10767 10766 10765 10763 10762 10760 10759 10757 10756 10753 10752 10749 10748 10746 10743 10741 10739 10737 10735 10732 10730 10728 10725 10722 10719 10716 10713 10710 10707 10704 10700 10697 10695 10691 10687 10683 10679 10675 10670 10666 10662 10658 10653 10650 10649 10644 10635 10625 10626 10628 10622 10614 10609 10604 10600 10595 10589 10582 10574 10567 10561 10554 10548 10542 10535
10767 10768 10769 10770 10770 10771 10771 10771 10772 10772 10772 10772 10772 10772 10772 10771 10771 10771 10770 10769 10768 10767 10767 10765 10764 10763 10761 10760 10758 10756 10755 10753 10751 10749 10746 10745 10742 10740 10738 10735 10733 10731 10729 10727 10724 10721 10718 10715 10712 10709 10705 10702 10699 10696 10692 10689 10686 10683 10679 10675 10671 10667 10662 10657 10652 10648 10645 10643 10642 10635 10620 10616 10623 10620 10611 10606 10600 10595 10589 10581 10576 10569 10561 10555 10548 10541 10535 10529
10768 10769 10769 10770 10770 10770 10771 10771 10771 10771 10771 10771 10771 10771 10771 10770 10770 10769 10768 10768 10767 10765 10764 10763 10762 10760 10759 10757 10755 10753 10751 10749 10747 10745 10743 10741 10739 10737 10735 10732 10730 10727 10725 10722 10719 10717 10714 10710 10707 10705 10702 10698 10694 10692 10688 10684 10680 10678 10674 10671 10667 10662 10657 10652 10645 10640 10638 10634 10635 10634 10619 10606 10610 10612 10605 10601 10596 10590 10585 10577 10570 10564 10556 10549 10543 10535 10529 10523
10768 10769 10769 10770 10770 10770 10770 10770 10770 10770 10770 10770 10770 10769 10769 10768 10768 10767 10766 10765 10764 10763 10762 10760 10759 10758 10756 10754 10752 10750 10748 10746 10744 10742 10740 10738 10736 10734 10731 10729 10726 10723 10720 10718 10715 10712 10710 10706 10702 10700 10698 10694 10690 10687 10684 10679 10675 10671 10669 10665 10661 10657 10652 10647 10640 10633 10630 10625 10623 10628 10619 10600 10598 10601 10597 10593 10589 10584 10580 10575 10567 10560 10551 10544 10538 10531 10524 10517
10768 10768 10769 10769 10769 10769 10769 10769 10769 10769 10769 10768 10768 10768 10767 10766 10766 10765 10764 10763 10762 10760 10759 10758 10756 10754 10753 10751 10749 10747 10745 10743 10740 10738 10736 10734 10732 10729 10727 10724 10721 10718 10716 10713 10710 10707 10705 10702 10698 10694 10692 10690 10686 10682 10679 10675 10670 10665 10661 10658 10655 10651 10647 10642 10637 10629 10624 10618 10612 10617 10615 10598 10589 10591 10587 10583 10581 10576 10573 10570 10564 10556 10547 10538 10531 10525 10519 10512
10766 10767 10767 10767 10768 10768 10768 10768 10767 10767 10767 10766 10766 10765 10765 10764 10763 10762 10761 10760 10759 10757 10756 10754 10752 10751 10749 10747 10745 10743 10741 10739 10736 10734 10732 10729 10727 10724 10722 10719 10716 10714 10711 10708 10706 10703 10700 10697 10693 10688 10685 10683 10680 10677 10674 10670 10665 10658 10654 10650 10647 10644 10641 10636 10632 10627 10621 10614 10606 10606 10609 10597 10584 10584 10582 10576 10573 10568 10563 10562 10557 10550 10542 10533 10525 10519 10512 10506
10765 10765 10765 10765 10766 10766 10766 10765 10765 10765 10765 10764 10763 10763 10762 10761 10760 10759 10758 10756 10755 10753 10752 10750 10748 10747 10745 10743 10741 10739 10736 10734 10731 10729 10727 10725 10722 10720 10717 10715 10712 10709 10707 10704 10700 10698 10695 10693 10689 10685 10680 10675 10673 10671 10669 10666 10661 10653 10647 10643 10640 10637 10634 10629 10625 10621 10617 10611 10602 10598 10602 10597 10582 10578 10577 10570 10566 10561 10554 10552 10549 10545 10537 10527 10519 10513 10505 10499
10762 10763 10763 10763 10763 10763 10763 10763 10762 10762 10762 10761 10760 10760 10759 10758 10756 10755 10754 10753 10751 10750 10748 10746 10744 10742 10740 10738 10736 10734 10732 10730 10727 10725 10723 10720 10718 10715 10712 10710 10707 10704 10701 10699 10695 10692 10690 10687 10685 10683 10677 10670 10665 10662 10661 10660 10656 10649 10641 10636 10632 10629 10628 10623 10617 10613 10610 10606 10599 10590 10594 10595 10581 10573 10571 10564 10559 10555 10545 10541 10539 10536 10531 10521 10512 10506 10499 10493
10760 10761 10761 10761 10761 10761 10760 10760 10760 10759 10759 10758 10757 10756 10755 10754 10753 10752 10750 10749 10747 10746 10744 10742 10740 10738 10736 10734 10732 10729 10727 10726 10723 10720 10718 10716 10713 10710 10707 10704 10702 10699 10696 10693 10690 10687 10684 10681 10678 10678 10676 10670 10663 10656 10653 10653 10651 10645 10637 10629 10625 10622 10621 10617 10612 10607 10603 10602 10597 10585 10586 10590 10578 10568 10565 10557 10551 10547 10537 10530 10528 10525 10523 10515 10505 10499 10493 10487
10758 10758 10758 10758 10758 10758 10758 10758 10757 10757 10756 10755 10754 10753 10752 10751 10749 10748 10747 10745 10743 10741 10740 10738 10735 10734 10732 10729 10727 10724 10722 10720 10718 10715 10712 10710 10707 10704 10702 10699 10696 10693 10690 10687 10684 10681 10679 10675 10669 10668 10668 10666 10661 10654 10651 10652 10649 10643 10635 10626 10620 10618 10616 10612 10606 10602 10597 10597 10594 10581 10578 10583 10574 10564 10562 10551 10543 10540 10532 10524 10521 10516 10513 10507 10498 10493 10487 10481
10756 10756 10756 10756 10756 10756 10755 10755 10754 10754 10753 10752 10751 10750 10748 10747 10745 10744 10743 10741 10739 10737 10735 10733 10731 10729 10726 10724 10722 10719 10717 10715 10712 10710 10707 10704 10702 10698 10696 10693 10689 10687 10684 10681 10678 10675 10674 10671 10663 10660 10659 10656 10652 10646 10643 10645 10644 10639 10631 10622 10615 10613 10611 10605 10599 10595 10590 10589 10589 10578 10571 10573 10567 10560 10559 10550 10540 10536 10527 10519 10515 10511 10507 10500 10492 10486 10481 10475
10754 10754 10754 10754 10753 10753 10752 10751 10751 10750 10749 10748 10747 10746 10745 10743 10741 10740 10738 10736 10734 10732 10730 10728 10726 10724 10721 10719 10716 10713 10711 10709 10706 10704 10702 10699 10696 10693 10690 10687 10683 10680 10677 10674 10671 10668 10668 10666 10659 10655 10654 10649 10643 10636 10633 10634 10635 10631 10624 10614 10607 10605 10603 10599 10592 10587 10583 10581 10579 10573 10568 10565 10557 10552 10552 10544 10535 10531 10522 10513 10508 10507 10504 10496 10487 10482 10476 10470
10752 10752 10751 10751 10750 10750 10749 10748 10747 10746 10745 10744 10743 10741 10740 10739 10737 10735 10733 10731 10729 10727 10725 10723 10720 10718 10716 10713 10711 10708 10706 10704 10701 10698 10696 10693 10690 10687 10684 10681 10677 10674 10671 10668 10665 10661 10660 10661 10655 10651 10650 10645 10637 10629 10626 10626 10626 10624 10616 10605 10599 10598 10596 10592 10586 10580 10576 10573 10570 10566 10565 10559 10549 10544 10544 10536 10527 10522 10514 10505 10500 10499 10499 10491 10482 10476 10471 10464
10748 10748 10747 10747 10746 10745 10745 10744 10743 10742 10740 10739 10738 10736 10735 10733 10731 10729 10728 10726 10724 10721 10720 10717 10714 10712 10710 10707 10705 10703 10701 10698 10695 10693 10689 10687 10684 10681 10678 10675 10671 10668 10665 10661 10658 10654 10651 10652 10648 10645 10646 10644 10633 10624 10621 10619 10618 10616 10609 10596 10589 10589 10587 10583 10579 10573 10569 10567 10563 10559 10559 10554 10543 10538 10536 10530 10522 10514 10506 10498 10491 10490 10491 10485 10475 10469 10464 10457
10745 10744 10743 10743 10742 10741 10740 10739 10738 10737 10735 10734 10732 10731 10729 10728 10725 10723 10721 10720 10717 10715 10713 10711 10709 10706 10703 10701 10699 10697 10695 10692 10690 10687 10684 10681 10678 10674 10671 10669 10665 10662 10658 10654 10651 10646 10642 10642 10639 10636 10639 10640 10630 10621 10616 10613 10611 10609 10602 10590 10581 10579 10579 10577 10573 10567 10563 10560 10557 10555 10553 10548 10540 10534 10530 10524 10517 10508 10499 10490 10484 10484 10483 10476 10468 10462 10456 10450
10741 10740 10739 10739 10738 10737 10736 10734 10733 10732 10730 10728 10727 10725 10723 10722 10719 10717 10715 10713 10711 10709 10706 10705 10703 10700 10697 10694 10692 10690 10688 10686 10683 10680 10678 10675 10672 10668 10665 10662 10659 10655 10652 10648 10644 10640 10635 10633 10630 10627 10630 10632 10625 10616 10612 10609 10605 10600 10591 10583 10576 10572 10571 10571 10567 10562 10557 10554 10552 10551 10546 10539 10533 10528 10524 10520 10513 10503 10493 10482 10475 10477 10478 10469 10460 10454 10449 10443
10737 10736 10735 10734 10733 10731 10730 10729 10727 10726 10724 10722 10721 10719 10717 10715 10713 10711 10709 10706 10704 10703 10700 10698 10696 10694 10691 10688 10686 10684 10682 10680 10677 10674 10672 10669 10666 10663 10659 10656 10652 10649 10645 10641 10637 10634 10628 10624 10621 10618 10619 10623 10617 10608 10606 10604 10600 10592 10580 10572 10569 10566 10564 10564 10562 10557 10552 10548 10547 10545 10539 10530 10524 10519 10514 10513 10510 10501 10489 10475 10464 10467 10472 10464 10453 10446 10441 10436